Flag for Qatar Weather past 2 weeks in Al-Jamiliyah, Qatar

Now
90 °F

Clear.


Feels Like: 101 °F
Forecast: 78 / 100 °F
Wind: 7 mph from Northeast

Location: Al Udeid

Current Time: Oct 1, 2014 at 9:20:01 PM

Latest Report: Oct 1, 2014 at 7:58 PM


Visibility: N/A

Pressure: 29.85 "Hg

Humidity: 64%

Dew point: 76 °F

Location of Al-JamiliyahLocation

Historic Weather in Al-Jamiliyah — Graph

°F

Al-Jamiliyah temperature yesterday

Maximum temperature yesterday: 98 °F (at 12:58 PM)
Minimum temperature yesterday: 81 °F (at 5:58 AM)
Average temperature yesterday: 90 °F

Past Weeks' High & Low Weather Summary

 TemperatureHumidityPressure
High108 °F (Sep 24, 11:58 AM)87% (Sep 28, 5:58 AM)29.91 "Hg (Sep 28, 5:58 AM)
Low78 °F (Sep 21, 3:58 AM)8% (Sep 21, 1:58 PM)29.59 "Hg (Sep 17, 1:58 AM)
Average91 °F53%29.74 "Hg
* Reported Sep 16 7:58 PM — Oct 1 7:58 PM, Al-Jamiliyah, Weather by CustomWeather, © 2014

Note: Actual official high and low records may vary slightly from our data, if they occured in-between our weather recording intervals... More about our weather records

Advertising

Al-Jamiliyah weather history for previous 24 hours

 ConditionsComfort  
Time TempWeatherWind HumidityBarometerVisibility
7:58 PM
Oct 1
90 °FClear.7 mph64%29.85 "HgN/A
6:58 PM90 °FSunny.8 mph68%29.83 "HgN/A
5:58 PM91 °FSunny.10 mph63%29.82 "HgN/A
4:58 PM94 °FSunny.14 mph53%29.80 "HgN/A
3:58 PM97 °FSunny.13 mph39%29.80 "HgN/A
2:58 PM98 °FPassing clouds.10 mph37%29.79 "HgN/A
1:58 PM99 °FPassing clouds.13 mph42%29.79 "HgN/A
12:58 PM99 °FPassing clouds.9 mph45%29.80 "HgN/A
11:58 AM99 °FScattered clouds.9 mph35%29.83 "HgN/A
10:58 AM95 °FScattered clouds.6 mph52%29.85 "HgN/A
9:58 AM96 °FPassing clouds.5 mph48%29.88 "HgN/A
8:58 AM93 °FHaze.2 mph60%29.89 "Hg6 mi
7:58 AM90 °FSunny.3 mph65%29.88 "Hg6 mi
6:58 AM85 °FSunny.3 mph71%29.86 "Hg6 mi
5:58 AM82 °FClear.7 mph76%29.84 "Hg6 mi
4:58 AM83 °FClear.2 mph74%29.83 "HgN/A
3:58 AM85 °FClear.2 mph72%29.81 "HgN/A
2:58 AM85 °FClear.6 mph71%29.80 "HgN/A
1:58 AM87 °FClear.5 mph70%29.81 "HgN/A
12:58 AM86 °FClear.5 mph69%29.81 "HgN/A
11:58 PM
Sep 30
87 °FClear.No wind69%29.82 "HgN/A
10:58 PM88 °FClear.7 mph67%29.82 "HgN/A
9:58 PM88 °FClear.5 mph66%29.83 "HgN/A
Weather by CustomWeather, © 2014

See weather overviewHow to use our weather pages